Weather in Amman

Jordan     31˚57′19″N   35˚53′44″E
temp.,
°C
wind,
m/s
gust,
m/s
humid.,
%
clouds,
%
prec.,
mm/h
press.,
hPa
HPBL,
m
1 december, tue
tue123:00+11˚ne117044 0.0 101622
02:00+10˚ene117322 0.0 101522
05:00+9˚e11730 0.0 101522
08:00+11˚ene11620 0.0 101560
11:00+14˚e21500 0.0 1015387
14:00+16˚ese11360 0.0 1012858
17:00+14˚nne22480 0.0 101323
20:00+12˚e11570 0.0 101422
2 december, wed
wed223:00+11˚n12550 0.0 101523
02:00+10˚ne225841 0.0 101524
05:00+9˚ene127225 0.0 101622
08:00+11˚nne116312 0.0 101741
11:00+15˚nne12480 0.0 1017542
14:00+16˚n22430 0.0 1015841
17:00+14˚n23550 0.0 101624
20:00+12˚n22640 0.0 101823
3 december, thu
thu323:00+11˚ene23680 0.0 101925
02:00+10˚e34810 0.0 101872
05:00+9˚e47880 0.0 1019129
08:00+11˚e69840 0.0 1020356
11:00+14˚ese89670 0.0 1019697
14:00+16˚ese79530 0.0 10161267
17:00+14˚e595731 0.0 1016182
20:00+13˚e455839 0.0 101775
4 december, fri
fri423:00+12˚ese45590 0.0 101775
02:00+10˚se612760 0.0 1016296
05:00+9˚se611860 0.0 1016262
08:00+10˚se812810 0.0 1018432
11:00+14˚se79650 0.0 1017649
14:00+16˚ese56530 0.0 10151100
17:00+14˚e45620 0.0 101583
20:00+13˚se236616 0.0 101627
5 december, sat
sat523:00+11˚e237168 0.0 101723
02:00+11˚e236183 0.0 101664
05:00+10˚e2267100 0.0 101654
08:00+11˚e1165100 0.0 101787
11:00+14˚ese225899 0.1 1016459
14:00+15˚se1254100 2.0 1014681
17:00+14˚nw1262100 1.6 101546
20:00+12˚nne347097 1.9 1016139